Location: Deurze
(52.9838°N, 6.6090°E)
Time: 18:46:11
(UTC+00:00)

USA 267 - Pass Details

Date: 11 March 2026
Orbit: 1101 x 1107 km, 123.0° (Epoch: 10 January)

Event Time Altitude Azimuth Distance (km) Brightness Sun altitude
Exits shadow 20:25:35 45° 168° (SSE) 1,459 3.5 -26.0°
Drops below altitude 10° 20:30:50 10° 214° (SW) 2,955 5.5 -26.7°
Sets 20:33:24 0° 220° (SW) 3,910 6.2 -27.0°
